Time,TemperatureF,DewpointF,PressureIn,WindDirection,WindDirectionDegrees,WindSpeedMPH,WindSpeedGustMPH,Humidity,HourlyPrecipIn,Conditions,Clouds,dailyrainin,SoftwareType,DateUTC
2013-06-13 00:02:00,50.4,46.7,29.99,ESE,112,1.0,2.0,87,0.00,,,0.00,LWC V2.00 B2112,2013-06-13 07:02:00,
2013-06-13 00:07:00,50.5,47.1,29.99,East,89,0.0,3.0,88,0.00,,,0.00,LWC V2.00 B2112,2013-06-13 07:07:00,
2013-06-13 00:12:00,50.5,46.8,29.99,North,8,1.0,3.0,87,0.00,,,0.00,LWC V2.00 B2112,2013-06-13 07:12:00,
2013-06-13 00:17:00,50.4,46.7,29.99,NE,54,3.0,3.0,87,0.00,,,0.00,LWC V2.00 B2112,2013-06-13 07:17:00,
2013-06-13 00:22:00,50.4,46.7,29.99,ESE,105,2.0,3.0,87,0.00,,,0.00,LWC V2.00 B2112,2013-06-13 07:22:00,
2013-06-13 00:27:00,50.4,46.7,29.99,East,99,0.0,4.0,87,0.00,,,0.00,LWC V2.00 B2112,2013-06-13 07:27:00,
2013-06-13 00:32:00,50.4,46.7,29.99,NNE,16,0.0,0.0,87,0.00,,,0.00,LWC V2.00 B2112,2013-06-13 07:32:00,
2013-06-13 00:37:00,50.3,46.6,29.99,East,84,0.0,0.0,87,0.00,,,0.00,LWC V2.00 B2112,2013-06-13 07:37:00,
2013-06-13 00:42:00,50.2,46.5,29.99,NW,320,0.0,2.0,87,0.00,,,0.00,LWC V2.00 B2112,2013-06-13 07:42:00,
2013-06-13 00:47:00,50.2,46.8,29.99,ESE,110,0.0,1.0,88,0.00,,,0.00,LWC V2.00 B2112,2013-06-13 07:47:00,
2013-06-13 00:52:00,50.2,46.8,29.99,ESE,112,0.0,0.0,88,0.00,,,0.00,LWC V2.00 B2112,2013-06-13 07:52:00,
2013-06-13 00:57:00,50.1,46.7,29.99,WNW,293,1.0,4.0,88,0.00,,,0.00,LWC V2.00 B2112,2013-06-13 07:57:00,
2013-06-13 01:02:00,50.0,46.6,29.99,NE,47,0.0,1.0,88,0.00,,,0.00,LWC V2.00 B2112,2013-06-13 08:02:00,
2013-06-13 01:07:00,50.1,46.7,29.99,SSW,210,1.0,2.0,88,0.00,,,0.00,LWC V2.00 B2112,2013-06-13 08:07:00,
2013-06-13 01:12:00,50.1,46.7,29.99,SW,214,1.0,2.0,88,0.00,,,0.00,LWC V2.00 B2112,2013-06-13 08:12:00,
2013-06-13 01:17:00,50.0,46.6,29.99,NW,305,0.0,2.0,88,0.00,,,0.00,LWC V2.00 B2112,2013-06-13 08:17:00,
2013-06-13 01:22:00,50.0,46.6,29.98,SE,129,0.0,1.0,88,0.00,,,0.00,LWC V2.00 B2112,2013-06-13 08:22:00,
2013-06-13 01:27:00,50.1,46.7,29.98,South,186,1.0,3.0,88,0.00,,,0.00,LWC V2.00 B2112,2013-06-13 08:27:00,
2013-06-13 01:32:00,50.1,46.7,29.99,NNW,346,3.0,5.0,88,0.00,,,0.00,LWC V2.00 B2112,2013-06-13 08:32:00,
2013-06-13 01:37:00,50.1,46.7,29.99,ESE,118,0.0,1.0,88,0.00,,,0.00,LWC V2.00 B2112,2013-06-13 08:37:00,
2013-06-13 01:42:00,50.1,46.4,29.99,North,351,0.0,1.0,87,0.00,,,0.00,LWC V2.00 B2112,2013-06-13 08:42:00,
2013-06-13 01:47:00,50.1,46.4,29.99,South,183,0.0,6.0,87,0.00,,,0.00,LWC V2.00 B2112,2013-06-13 08:47:00,
2013-06-13 01:52:00,50.1,46.4,29.99,North,1,0.0,1.0,87,0.00,,,0.00,LWC V2.00 B2112,2013-06-13 08:52:00,
2013-06-13 01:57:00,50.1,46.4,29.99,NNE,15,1.0,3.0,87,0.00,,,0.00,LWC V2.00 B2112,2013-06-13 08:57:00,
2013-06-13 02:02:00,50.2,46.5,29.99,East,100,2.0,3.0,87,0.00,,,0.00,LWC V2.00 B2112,2013-06-13 09:02:00,
2013-06-13 02:07:00,50.2,46.5,29.99,NW,314,0.0,1.0,87,0.00,,,0.00,LWC V2.00 B2112,2013-06-13 09:07:00,
2013-06-13 02:12:00,50.1,46.4,29.99,ENE,78,1.0,1.0,87,0.00,,,0.00,LWC V2.00 B2112,2013-06-13 09:12:00,
2013-06-13 02:17:00,50.0,46.3,29.99,SW,221,0.0,0.0,87,0.00,,,0.00,LWC V2.00 B2112,2013-06-13 09:17:00,
2013-06-13 02:22:00,49.9,46.2,29.99,West,280,1.0,1.0,87,0.00,,,0.00,LWC V2.00 B2112,2013-06-13 09:22:00,
2013-06-13 02:27:00,49.9,46.2,29.99,NW,316,0.0,2.0,87,0.00,,,0.00,LWC V2.00 B2112,2013-06-13 09:27:00,
2013-06-13 02:32:00,49.9,46.2,29.99,NW,314,0.0,1.0,87,0.00,,,0.00,LWC V2.00 B2112,2013-06-13 09:32:00,
2013-06-13 02:37:00,49.8,46.1,29.99,SSW,212,1.0,1.0,87,0.00,,,0.00,LWC V2.00 B2112,2013-06-13 09:37:00,
2013-06-13 02:42:00,49.6,45.9,29.99,SW,224,0.0,0.0,87,0.00,,,0.00,LWC V2.00 B2112,2013-06-13 09:42:00,
2013-06-13 02:47:00,49.6,45.9,29.99,West,270,1.0,3.0,87,0.00,,,0.00,LWC V2.00 B2112,2013-06-13 09:47:00,
2013-06-13 02:52:00,49.6,45.9,29.99,SW,218,0.0,3.0,87,0.00,,,0.00,LWC V2.00 B2112,2013-06-13 09:52:00,
2013-06-13 02:57:00,49.6,45.9,29.99,ENE,69,0.0,1.0,87,0.00,,,0.00,LWC V2.00 B2112,2013-06-13 09:57:00,
2013-06-13 03:02:00,49.6,45.9,29.99,ENE,58,0.0,1.0,87,0.00,,,0.00,LWC V2.00 B2112,2013-06-13 10:02:00,
2013-06-13 03:07:00,49.7,46.3,29.99,NW,322,0.0,3.0,88,0.00,,,0.00,LWC V2.00 B2112,2013-06-13 10:07:00,
2013-06-13 03:12:00,49.6,45.9,29.99,ESE,122,0.0,0.0,87,0.00,,,0.00,LWC V2.00 B2112,2013-06-13 10:12:00,
2013-06-13 03:17:00,49.7,46.0,29.99,ESE,122,0.0,2.0,87,0.00,,,0.00,LWC V2.00 B2112,2013-06-13 10:17:00,
2013-06-13 03:22:00,49.7,46.0,29.99,East,82,1.0,1.0,87,0.00,,,0.00,LWC V2.00 B2112,2013-06-13 10:22:00,
2013-06-13 03:27:00,49.7,46.3,30.00,SW,218,1.0,2.0,88,0.00,,,0.00,LWC V2.00 B2112,2013-06-13 10:27:00,
2013-06-13 03:32:00,49.7,46.3,29.99,WSW,248,0.0,1.0,88,0.00,,,0.00,LWC V2.00 B2112,2013-06-13 10:32:00,
2013-06-13 03:37:00,49.7,46.3,30.00,SSE,148,1.0,1.0,88,0.00,,,0.00,LWC V2.00 B2112,2013-06-13 10:37:00,
2013-06-13 03:42:00,49.6,46.2,30.00,ESE,104,0.0,1.0,88,0.00,,,0.00,LWC V2.00 B2112,2013-06-13 10:42:00,
2013-06-13 03:47:00,49.6,46.2,30.00,ENE,57,0.0,1.0,88,0.00,,,0.00,LWC V2.00 B2112,2013-06-13 10:47:00,
2013-06-13 03:52:00,49.7,46.3,30.00,NNW,335,1.0,3.0,88,0.00,,,0.00,LWC V2.00 B2112,2013-06-13 10:52:00,
2013-06-13 03:57:00,49.7,46.3,30.00,ESE,120,0.0,2.0,88,0.00,,,0.00,LWC V2.00 B2112,2013-06-13 10:57:00,
2013-06-13 04:02:00,49.6,46.2,30.00,East,94,1.0,1.0,88,0.00,,,0.00,LWC V2.00 B2112,2013-06-13 11:02:00,
2013-06-13 04:07:00,49.5,46.1,30.00,North,11,1.0,4.0,88,0.00,,,0.00,LWC V2.00 B2112,2013-06-13 11:07:00,
2013-06-13 04:12:00,49.6,46.2,30.00,East,82,1.0,1.0,88,0.00,,,0.00,LWC V2.00 B2112,2013-06-13 11:12:00,
2013-06-13 04:17:00,49.7,46.3,30.00,ESE,111,0.0,3.0,88,0.00,,,0.00,LWC V2.00 B2112,2013-06-13 11:17:00,
2013-06-13 04:22:00,49.6,46.2,30.00,East,93,3.0,3.0,88,0.00,,,0.00,LWC V2.00 B2112,2013-06-13 11:22:00,
2013-06-13 04:27:00,49.6,46.2,30.00,WNW,285,0.0,2.0,88,0.00,,,0.00,LWC V2.00 B2112,2013-06-13 11:27:00,
2013-06-13 04:32:00,49.6,46.2,30.00,NE,41,0.0,1.0,88,0.00,,,0.00,LWC V2.00 B2112,2013-06-13 11:32:00,
2013-06-13 04:37:00,49.5,46.1,30.00,NW,321,0.0,2.0,88,0.00,,,0.00,LWC V2.00 B2112,2013-06-13 11:37:00,
2013-06-13 04:42:00,49.4,46.0,30.01,NW,319,0.0,3.0,88,0.00,,,0.00,LWC V2.00 B2112,2013-06-13 11:42:00,
2013-06-13 04:47:00,49.4,46.0,30.01,NE,44,2.0,2.0,88,0.00,,,0.00,LWC V2.00 B2112,2013-06-13 11:47:00,
2013-06-13 04:52:00,49.4,46.0,30.01,NNW,343,0.0,2.0,88,0.00,,,0.00,LWC V2.00 B2112,2013-06-13 11:52:00,
2013-06-13 04:57:00,49.4,46.0,30.01,NW,315,2.0,4.0,88,0.00,,,0.00,LWC V2.00 B2112,2013-06-13 11:57:00,
2013-06-13 05:02:00,49.3,45.9,30.01,West,277,0.0,0.0,88,0.00,,,0.00,LWC V2.00 B2112,2013-06-13 12:02:00,
2013-06-13 05:07:00,49.1,45.7,30.01,NNE,15,0.0,1.0,88,0.00,,,0.00,LWC V2.00 B2112,2013-06-13 12:07:00,
2013-06-13 05:12:00,49.1,45.7,30.01,East,96,0.0,1.0,88,0.00,,,0.00,LWC V2.00 B2112,2013-06-13 12:12:00,
2013-06-13 05:17:00,49.0,45.6,30.01,ESE,114,0.0,2.0,88,0.00,,,0.00,LWC V2.00 B2112,2013-06-13 12:17:00,
2013-06-13 05:22:00,49.0,45.9,30.01,SW,220,0.0,4.0,89,0.00,,,0.00,LWC V2.00 B2112,2013-06-13 12:22:00,
2013-06-13 05:27:00,48.9,45.8,30.01,ESE,120,1.0,1.0,89,0.00,,,0.00,LWC V2.00 B2112,2013-06-13 12:27:00,
2013-06-13 05:32:00,49.1,46.0,30.01,SE,130,0.0,4.0,89,0.00,,,0.00,LWC V2.00 B2112,2013-06-13 12:32:00,
2013-06-13 05:37:00,49.1,46.0,30.01,East,82,0.0,0.0,89,0.00,,,0.00,LWC V2.00 B2112,2013-06-13 12:37:00,
2013-06-13 05:42:00,49.1,46.0,30.01,ENE,72,0.0,1.0,89,0.00,,,0.00,LWC V2.00 B2112,2013-06-13 12:42:00,
2013-06-13 05:47:00,49.1,46.0,30.01,East,90,1.0,2.0,89,0.00,,,0.00,LWC V2.00 B2112,2013-06-13 12:47:00,
2013-06-13 05:52:00,49.1,46.0,30.02,WNW,291,0.0,3.0,89,0.00,,,0.00,LWC V2.00 B2112,2013-06-13 12:52:00,
2013-06-13 05:57:00,49.0,45.9,30.02,ESE,117,0.0,1.0,89,0.00,,,0.00,LWC V2.00 B2112,2013-06-13 12:57:00,
2013-06-13 06:02:00,49.1,46.0,30.02,NNE,33,0.0,2.0,89,0.00,,,0.00,LWC V2.00 B2112,2013-06-13 13:02:00,
2013-06-13 06:07:00,49.0,45.9,30.02,NE,39,0.0,1.0,89,0.00,,,0.00,LWC V2.00 B2112,2013-06-13 13:07:00,
2013-06-13 06:12:00,49.1,46.0,30.02,WNW,290,0.0,1.0,89,0.00,,,0.00,LWC V2.00 B2112,2013-06-13 13:12:00,
2013-06-13 06:17:00,49.3,46.2,30.02,East,89,0.0,3.0,89,0.00,,,0.00,LWC V2.00 B2112,2013-06-13 13:17:00,
2013-06-13 06:22:00,49.4,46.3,30.02,NW,318,3.0,3.0,89,0.00,,,0.00,LWC V2.00 B2112,2013-06-13 13:22:00,
2013-06-13 06:27:00,49.6,46.5,30.03,SSW,200,0.0,3.0,89,0.00,,,0.00,LWC V2.00 B2112,2013-06-13 13:27:00,
2013-06-13 06:32:00,49.7,46.3,30.03,East,92,2.0,2.0,88,0.00,,,0.00,LWC V2.00 B2112,2013-06-13 13:32:00,
2013-06-13 06:37:00,49.8,46.4,30.03,ESE,106,0.0,2.0,88,0.00,,,0.00,LWC V2.00 B2112,2013-06-13 13:37:00,
2013-06-13 06:42:00,50.0,46.6,30.03,NW,311,0.0,3.0,88,0.00,,,0.00,LWC V2.00 B2112,2013-06-13 13:42:00,
2013-06-13 06:47:00,50.3,46.9,30.03,East,88,2.0,2.0,88,0.00,,,0.00,LWC V2.00 B2112,2013-06-13 13:47:00,
2013-06-13 06:52:00,50.7,47.3,30.03,WNW,301,1.0,3.0,88,0.00,,,0.00,LWC V2.00 B2112,2013-06-13 13:52:00,
2013-06-13 06:57:00,51.3,47.9,30.03,ESE,121,2.0,2.0,88,0.00,,,0.00,LWC V2.00 B2112,2013-06-13 13:57:00,
2013-06-13 07:02:00,51.6,47.9,30.03,SSW,212,0.0,2.0,87,0.00,,,0.00,LWC V2.00 B2112,2013-06-13 14:02:00,
2013-06-13 07:07:00,52.2,48.4,30.03,ESE,107,0.0,3.0,87,0.00,,,0.00,LWC V2.00 B2112,2013-06-13 14:07:00,
2013-06-13 07:12:00,53.0,48.6,30.03,SSE,163,1.0,2.0,85,0.00,,,0.00,LWC V2.00 B2112,2013-06-13 14:12:00,
2013-06-13 07:17:00,53.7,49.0,30.03,NNW,329,1.0,3.0,84,0.00,,,0.00,LWC V2.00 B2112,2013-06-13 14:17:00,
2013-06-13 07:22:00,54.3,49.2,30.03,North,351,1.0,3.0,83,0.00,,,0.00,LWC V2.00 B2112,2013-06-13 14:22:00,
2013-06-13 07:27:00,54.9,49.5,30.03,NNE,15,1.0,3.0,82,0.00,,,0.00,LWC V2.00 B2112,2013-06-13 14:27:00,
2013-06-13 07:32:00,55.4,49.7,30.03,ENE,65,0.0,2.0,81,0.00,,,0.00,LWC V2.00 B2112,2013-06-13 14:32:00,
2013-06-13 07:37:00,55.9,49.8,30.04,NE,44,0.0,2.0,80,0.00,,,0.00,LWC V2.00 B2112,2013-06-13 14:37:00,
2013-06-13 07:42:00,56.2,49.8,30.04,East,92,3.0,3.0,79,0.00,,,0.00,LWC V2.00 B2112,2013-06-13 14:42:00,
2013-06-13 07:47:00,56.2,49.4,30.04,ESE,118,3.0,4.0,78,0.00,,,0.00,LWC V2.00 B2112,2013-06-13 14:47:00,
2013-06-13 07:52:00,56.3,49.5,30.04,NE,44,1.0,1.0,78,0.00,,,0.00,LWC V2.00 B2112,2013-06-13 14:52:00,
2013-06-13 07:57:00,56.9,50.1,30.04,ESE,102,1.0,2.0,78,0.00,,,0.00,LWC V2.00 B2112,2013-06-13 14:57:00,
2013-06-13 08:02:00,57.6,50.1,30.05,East,95,1.0,1.0,76,0.00,,,0.00,LWC V2.00 B2112,2013-06-13 15:02:00,
2013-06-13 08:07:00,57.7,50.5,30.05,ESE,112,0.0,0.0,77,0.00,,,0.00,LWC V2.00 B2112,2013-06-13 15:07:00,
2013-06-13 08:12:00,58.6,51.1,30.05,North,354,0.0,1.0,76,0.00,,,0.00,LWC V2.00 B2112,2013-06-13 15:12:00,
2013-06-13 08:17:00,59.5,51.2,30.05,North,353,1.0,1.0,74,0.00,,,0.00,LWC V2.00 B2112,2013-06-13 15:17:00,
2013-06-13 08:22:00,60.2,51.5,30.05,NW,324,0.0,2.0,73,0.00,,,0.00,LWC V2.00 B2112,2013-06-13 15:22:00,
2013-06-13 08:27:00,60.7,51.6,30.06,NNW,345,0.0,2.0,72,0.00,,,0.00,LWC V2.00 B2112,2013-06-13 15:27:00,
2013-06-13 08:32:00,60.8,51.3,30.06,East,97,2.0,3.0,71,0.00,,,0.00,LWC V2.00 B2112,2013-06-13 15:32:00,
2013-06-13 08:37:00,60.3,51.2,30.06,NW,307,1.0,4.0,72,0.00,,,0.00,LWC V2.00 B2112,2013-06-13 15:37:00,
2013-06-13 08:42:00,60.2,51.1,30.06,NW,316,2.0,3.0,72,0.00,,,0.00,LWC V2.00 B2112,2013-06-13 15:42:00,
2013-06-13 08:47:00,60.4,51.3,30.06,South,181,1.0,2.0,72,0.00,,,0.00,LWC V2.00 B2112,2013-06-13 15:47:00,
2013-06-13 08:52:00,60.5,51.4,30.06,SE,135,0.0,5.0,72,0.00,,,0.00,LWC V2.00 B2112,2013-06-13 15:52:00,
2013-06-13 08:57:00,60.7,51.6,30.06,NW,316,4.0,4.0,72,0.00,,,0.00,LWC V2.00 B2112,2013-06-13 15:57:00,
2013-06-13 09:02:00,61.1,51.2,30.06,NNW,340,0.0,2.0,70,0.00,,,0.00,LWC V2.00 B2112,2013-06-13 16:02:00,
2013-06-13 09:07:00,61.3,51.0,30.07,NW,322,0.0,4.0,69,0.00,,,0.00,LWC V2.00 B2112,2013-06-13 16:07:00,
2013-06-13 09:12:00,61.4,51.1,30.07,East,88,1.0,4.0,69,0.00,,,0.00,LWC V2.00 B2112,2013-06-13 16:12:00,
2013-06-13 09:17:00,61.7,50.6,30.07,East,86,3.0,4.0,67,0.00,,,0.00,LWC V2.00 B2112,2013-06-13 16:17:00,
2013-06-13 09:22:00,61.7,50.6,30.07,West,280,4.0,4.0,67,0.00,,,0.00,LWC V2.00 B2112,2013-06-13 16:22:00,
2013-06-13 09:27:00,61.8,50.7,30.07,WNW,291,1.0,3.0,67,0.00,,,0.00,LWC V2.00 B2112,2013-06-13 16:27:00,
2013-06-13 09:32:00,62.3,51.2,30.07,ESE,106,0.0,1.0,67,0.00,,,0.00,LWC V2.00 B2112,2013-06-13 16:32:00,
2013-06-13 09:37:00,63.2,51.2,30.07,SSE,166,1.0,4.0,65,0.00,,,0.00,LWC V2.00 B2112,2013-06-13 16:37:00,
2013-06-13 09:42:00,63.1,50.7,30.07,SE,131,1.0,3.0,64,0.00,,,0.00,LWC V2.00 B2112,2013-06-13 16:42:00,
2013-06-13 09:47:00,63.1,50.7,30.07,NNE,32,0.0,3.0,64,0.00,,,0.00,LWC V2.00 B2112,2013-06-13 16:47:00,
2013-06-13 09:52:00,63.0,51.0,30.07,East,91,1.0,2.0,65,0.00,,,0.00,LWC V2.00 B2112,2013-06-13 16:52:00,
2013-06-13 09:57:00,63.2,50.8,30.07,North,354,1.0,5.0,64,0.00,,,0.00,LWC V2.00 B2112,2013-06-13 16:57:00,
2013-06-13 10:02:00,63.2,51.2,30.07,North,0,0.0,3.0,65,0.00,,,0.00,LWC V2.00 B2112,2013-06-13 17:02:00,
2013-06-13 10:07:00,63.5,51.5,30.07,NE,53,2.0,2.0,65,0.00,,,0.00,LWC V2.00 B2112,2013-06-13 17:07:00,
2013-06-13 10:12:00,63.7,50.9,30.07,ESE,105,2.0,3.0,63,0.00,,,0.00,LWC V2.00 B2112,2013-06-13 17:12:00,
2013-06-13 10:17:00,63.6,50.8,30.07,NNW,332,1.0,4.0,63,0.00,,,0.00,LWC V2.00 B2112,2013-06-13 17:17:00,
2013-06-13 10:22:00,63.9,51.1,30.07,NNE,32,2.0,2.0,63,0.00,,,0.00,LWC V2.00 B2112,2013-06-13 17:22:00,
2013-06-13 10:27:00,64.2,51.3,30.07,NNW,347,1.0,1.0,63,0.00,,,0.00,LWC V2.00 B2112,2013-06-13 17:27:00,
2013-06-13 10:32:00,64.4,51.5,30.07,West,271,3.0,5.0,63,0.00,,,0.00,LWC V2.00 B2112,2013-06-13 17:32:00,
2013-06-13 10:37:00,64.5,51.2,30.07,WNW,296,2.0,3.0,62,0.00,,,0.00,LWC V2.00 B2112,2013-06-13 17:37:00,
2013-06-13 10:42:00,64.4,51.1,30.07,NE,46,1.0,2.0,62,0.00,,,0.00,LWC V2.00 B2112,2013-06-13 17:42:00,
2013-06-13 10:47:00,65.0,51.7,30.08,NW,324,2.0,2.0,62,0.00,,,0.00,LWC V2.00 B2112,2013-06-13 17:47:00,
2013-06-13 10:52:00,64.8,51.0,30.08,NW,326,4.0,5.0,61,0.00,,,0.00,LWC V2.00 B2112,2013-06-13 17:52:00,
2013-06-13 10:56:00,64.7,51.8,30.08,NNE,26,2.0,6.0,63,0.00,,,0.00,LWC V2.00 B2112,2013-06-13 17:56:00,
2013-06-13 11:01:00,64.2,51.3,30.08,NW,305,1.0,6.0,63,0.00,,,0.00,LWC V2.00 B2112,2013-06-13 18:01:00,
2013-06-13 11:06:00,64.0,51.6,30.08,SE,124,2.0,3.0,64,0.00,,,0.00,LWC V2.00 B2112,2013-06-13 18:06:00,
2013-06-13 11:11:00,64.3,51.9,30.08,NNW,333,2.0,3.0,64,0.00,,,0.00,LWC V2.00 B2112,2013-06-13 18:11:00,
2013-06-13 11:16:00,64.2,51.8,30.08,NE,56,1.0,8.0,64,0.00,,,0.00,LWC V2.00 B2112,2013-06-13 18:16:00,
2013-06-13 11:21:00,63.7,51.3,30.08,WSW,248,2.0,5.0,64,0.00,,,0.00,LWC V2.00 B2112,2013-06-13 18:21:00,
2013-06-13 11:26:00,63.6,52.0,30.09,East,98,2.0,5.0,66,0.00,,,0.00,LWC V2.00 B2112,2013-06-13 18:26:00,
2013-06-13 11:31:00,63.5,51.5,30.09,East,79,1.0,5.0,65,0.00,,,0.00,LWC V2.00 B2112,2013-06-13 18:31:00,
2013-06-13 11:36:00,63.7,52.1,30.09,NW,322,2.0,3.0,66,0.00,,,0.00,LWC V2.00 B2112,2013-06-13 18:36:00,
2013-06-13 11:41:00,63.5,51.5,30.09,NNW,343,1.0,6.0,65,0.00,,,0.00,LWC V2.00 B2112,2013-06-13 18:41:00,
2013-06-13 11:46:00,63.1,51.1,30.09,SE,127,3.0,5.0,65,0.00,,,0.00,LWC V2.00 B2112,2013-06-13 18:46:00,
2013-06-13 11:51:00,63.0,51.9,30.09,East,101,2.0,4.0,67,0.00,,,0.00,LWC V2.00 B2112,2013-06-13 18:51:00,
2013-06-13 11:56:00,63.1,51.6,30.09,NW,326,5.0,8.0,66,0.00,,,0.00,LWC V2.00 B2112,2013-06-13 18:56:00,
2013-06-13 12:01:00,63.0,51.9,30.09,NE,44,3.0,5.0,67,0.00,,,0.00,LWC V2.00 B2112,2013-06-13 19:01:00,
2013-06-13 12:06:00,62.9,51.4,30.09,ESE,117,2.0,6.0,66,0.00,,,0.00,LWC V2.00 B2112,2013-06-13 19:06:00,
2013-06-13 12:11:00,63.1,51.6,30.09,ENE,72,3.0,6.0,66,0.00,,,0.00,LWC V2.00 B2112,2013-06-13 19:11:00,
2013-06-13 12:16:00,63.2,51.6,30.09,South,191,3.0,4.0,66,0.00,,,0.00,LWC V2.00 B2112,2013-06-13 19:16:00,
2013-06-13 12:21:00,63.6,52.0,30.09,South,188,1.0,2.0,66,0.00,,,0.00,LWC V2.00 B2112,2013-06-13 19:21:00,
2013-06-13 12:26:00,63.7,51.7,30.09,NNE,33,2.0,6.0,65,0.00,,,0.00,LWC V2.00 B2112,2013-06-13 19:26:00,
2013-06-13 12:31:00,63.5,51.5,30.10,South,186,2.0,7.0,65,0.00,,,0.00,LWC V2.00 B2112,2013-06-13 19:31:00,
2013-06-13 12:36:00,63.5,51.9,30.09,East,94,1.0,3.0,66,0.00,,,0.00,LWC V2.00 B2112,2013-06-13 19:36:00,
2013-06-13 12:41:00,63.3,51.3,30.09,East,91,1.0,4.0,65,0.00,,,0.00,LWC V2.00 B2112,2013-06-13 19:41:00,
2013-06-13 12:46:00,63.6,52.4,30.09,East,79,2.0,6.0,67,0.00,,,0.00,LWC V2.00 B2112,2013-06-13 19:46:00,
2013-06-13 12:51:00,63.4,51.4,30.09,WSW,257,3.0,5.0,65,0.00,,,0.00,LWC V2.00 B2112,2013-06-13 19:51:00,
2013-06-13 12:56:00,63.5,51.5,30.09,SE,144,2.0,6.0,65,0.00,,,0.00,LWC V2.00 B2112,2013-06-13 19:56:00,
2013-06-13 13:01:00,63.9,52.3,30.09,South,169,2.0,6.0,66,0.00,,,0.00,LWC V2.00 B2112,2013-06-13 20:01:00,
2013-06-13 13:06:00,63.4,51.8,30.09,North,353,6.0,6.0,66,0.00,,,0.00,LWC V2.00 B2112,2013-06-13 20:06:00,
2013-06-13 13:11:00,63.3,52.2,30.08,East,98,4.0,4.0,67,0.00,,,0.00,LWC V2.00 B2112,2013-06-13 20:11:00,
2013-06-13 13:16:00,63.4,52.2,30.09,NNE,32,5.0,5.0,67,0.00,,,0.00,LWC V2.00 B2112,2013-06-13 20:16:00,
2013-06-13 13:21:00,63.5,51.9,30.09,NW,309,0.0,6.0,66,0.00,,,0.00,LWC V2.00 B2112,2013-06-13 20:21:00,
2013-06-13 13:26:00,63.6,52.0,30.09,ENE,70,1.0,4.0,66,0.00,,,0.00,LWC V2.00 B2112,2013-06-13 20:26:00,
2013-06-13 13:31:00,63.2,52.5,30.08,NW,316,2.0,5.0,68,0.00,,,0.00,LWC V2.00 B2112,2013-06-13 20:31:00,
2013-06-13 13:36:00,63.3,52.2,30.09,WNW,293,4.0,5.0,67,0.00,,,0.00,LWC V2.00 B2112,2013-06-13 20:36:00,
2013-06-13 13:41:00,63.2,52.1,30.09,ESE,120,1.0,6.0,67,0.00,,,0.00,LWC V2.00 B2112,2013-06-13 20:41:00,
2013-06-13 13:46:00,63.3,52.2,30.09,NW,316,2.0,5.0,67,0.00,,,0.00,LWC V2.00 B2112,2013-06-13 20:46:00,
2013-06-13 13:51:00,63.6,52.0,30.09,SE,138,2.0,11.0,66,0.00,,,0.00,LWC V2.00 B2112,2013-06-13 20:51:00,
2013-06-13 13:56:00,63.1,52.0,30.09,NW,323,2.0,6.0,67,0.00,,,0.00,LWC V2.00 B2112,2013-06-13 20:56:00,
2013-06-13 14:01:00,62.9,51.8,30.09,WNW,287,3.0,6.0,67,0.00,,,0.00,LWC V2.00 B2112,2013-06-13 21:01:00,
2013-06-13 14:02:00,62.8,51.7,30.09,ENE,65,4.0,6.0,67,0.00,,,0.00,LWC V2.00 B2112,2013-06-13 21:02:00,
2013-06-13 14:07:00,62.6,51.9,30.09,NE,51,2.0,5.0,68,0.00,,,0.00,LWC V2.00 B2112,2013-06-13 21:07:00,
2013-06-13 14:12:00,62.8,52.5,30.08,ESE,103,2.0,3.0,69,0.00,,,0.00,LWC V2.00 B2112,2013-06-13 21:12:00,
2013-06-13 14:17:00,63.3,52.2,30.08,WNW,300,4.0,7.0,67,0.00,,,0.00,LWC V2.00 B2112,2013-06-13 21:17:00,
2013-06-13 14:22:00,63.2,52.1,30.08,ENE,60,1.0,6.0,67,0.00,,,0.00,LWC V2.00 B2112,2013-06-13 21:22:00,
2013-06-13 14:27:00,63.3,52.2,30.08,WNW,298,3.0,5.0,67,0.00,,,0.00,LWC V2.00 B2112,2013-06-13 21:27:00,
2013-06-13 14:32:00,63.2,51.6,30.08,SE,135,2.0,6.0,66,0.00,,,0.00,LWC V2.00 B2112,2013-06-13 21:32:00,
2013-06-13 14:37:00,63.1,51.6,30.08,South,187,1.0,5.0,66,0.00,,,0.00,LWC V2.00 B2112,2013-06-13 21:37:00,
2013-06-13 14:42:00,62.8,51.7,30.08,SSE,155,0.0,5.0,67,0.00,,,0.00,LWC V2.00 B2112,2013-06-13 21:42:00,
2013-06-13 14:47:00,63.0,51.9,30.08,SSW,198,1.0,7.0,67,0.00,,,0.00,LWC V2.00 B2112,2013-06-13 21:47:00,
2013-06-13 14:52:00,62.9,51.8,30.08,SW,228,1.0,6.0,67,0.00,,,0.00,LWC V2.00 B2112,2013-06-13 21:52:00,
2013-06-13 14:57:00,63.0,52.3,30.07,SE,140,3.0,3.0,68,0.00,,,0.00,LWC V2.00 B2112,2013-06-13 21:57:00,
2013-06-13 15:02:00,63.3,51.7,30.07,East,96,1.0,2.0,66,0.00,,,0.00,LWC V2.00 B2112,2013-06-13 22:02:00,
2013-06-13 15:07:00,63.7,52.1,30.06,NNW,343,2.0,4.0,66,0.00,,,0.00,LWC V2.00 B2112,2013-06-13 22:07:00,
2013-06-13 15:12:00,63.8,51.8,30.06,SE,145,2.0,8.0,65,0.00,,,0.00,LWC V2.00 B2112,2013-06-13 22:12:00,
2013-06-13 15:17:00,63.6,52.0,30.06,SE,139,4.0,5.0,66,0.00,,,0.00,LWC V2.00 B2112,2013-06-13 22:17:00,
2013-06-13 15:22:00,63.7,51.7,30.06,West,271,2.0,5.0,65,0.00,,,0.00,LWC V2.00 B2112,2013-06-13 22:22:00,
2013-06-13 15:27:00,63.5,51.9,30.06,East,91,1.0,5.0,66,0.00,,,0.00,LWC V2.00 B2112,2013-06-13 22:27:00,
2013-06-13 15:32:00,63.2,51.6,30.06,SW,222,2.0,10.0,66,0.00,,,0.00,LWC V2.00 B2112,2013-06-13 22:32:00,
2013-06-13 15:37:00,63.0,51.9,30.06,ESE,113,2.0,6.0,67,0.00,,,0.00,LWC V2.00 B2112,2013-06-13 22:37:00,
2013-06-13 15:42:00,63.4,52.2,30.06,ENE,63,8.0,8.0,67,0.00,,,0.00,LWC V2.00 B2112,2013-06-13 22:42:00,
2013-06-13 15:47:00,62.8,51.7,30.06,ESE,117,4.0,6.0,67,0.00,,,0.00,LWC V2.00 B2112,2013-06-13 22:47:00,
2013-06-13 15:52:00,62.6,51.5,30.05,NNE,32,3.0,5.0,67,0.00,,,0.00,LWC V2.00 B2112,2013-06-13 22:52:00,
2013-06-13 15:57:00,62.6,51.9,30.05,East,85,1.0,3.0,68,0.00,,,0.00,LWC V2.00 B2112,2013-06-13 22:57:00,
2013-06-13 16:02:00,62.9,51.4,30.05,WNW,294,4.0,9.0,66,0.00,,,0.00,LWC V2.00 B2112,2013-06-13 23:02:00,
2013-06-13 16:07:00,63.0,51.5,30.04,WNW,283,1.0,5.0,66,0.00,,,0.00,LWC V2.00 B2112,2013-06-13 23:07:00,
2013-06-13 16:12:00,63.1,51.6,30.04,South,188,6.0,6.0,66,0.00,,,0.00,LWC V2.00 B2112,2013-06-13 23:12:00,
2013-06-13 16:17:00,63.1,51.6,30.04,SE,129,1.0,6.0,66,0.00,,,0.00,LWC V2.00 B2112,2013-06-13 23:17:00,
2013-06-13 16:22:00,63.1,51.6,30.04,WNW,295,2.0,2.0,66,0.00,,,0.00,LWC V2.00 B2112,2013-06-13 23:22:00,
2013-06-13 16:27:00,63.2,51.2,30.04,ENE,67,2.0,15.0,65,0.00,,,0.00,LWC V2.00 B2112,2013-06-13 23:27:00,
2013-06-13 16:32:00,62.9,50.9,30.04,ENE,60,1.0,5.0,65,0.00,,,0.00,LWC V2.00 B2112,2013-06-13 23:32:00,
2013-06-13 16:37:00,62.8,51.3,30.04,East,96,2.0,12.0,66,0.00,,,0.00,LWC V2.00 B2112,2013-06-13 23:37:00,
2013-06-13 16:42:00,62.8,51.7,30.04,WNW,296,1.0,4.0,67,0.00,,,0.00,LWC V2.00 B2112,2013-06-13 23:42:00,
2013-06-13 16:47:00,63.3,51.3,30.04,SW,224,1.0,6.0,65,0.00,,,0.00,LWC V2.00 B2112,2013-06-13 23:47:00,
2013-06-13 16:52:00,63.4,51.4,30.04,WNW,285,1.0,3.0,65,0.00,,,0.00,LWC V2.00 B2112,2013-06-13 23:52:00,
2013-06-13 16:57:00,63.4,51.8,30.03,South,179,1.0,3.0,66,0.00,,,0.00,LWC V2.00 B2112,2013-06-13 23:57:00,
2013-06-13 17:02:00,63.5,51.1,30.03,SE,136,2.0,6.0,64,0.00,,,0.00,LWC V2.00 B2112,2013-06-14 00:02:00,
2013-06-13 17:07:00,63.3,51.3,30.03,North,358,0.0,2.0,65,0.00,,,0.00,LWC V2.00 B2112,2013-06-14 00:07:00,
2013-06-13 17:12:00,63.1,51.6,30.03,NE,49,1.0,4.0,66,0.00,,,0.00,LWC V2.00 B2112,2013-06-14 00:12:00,
2013-06-13 17:17:00,62.9,50.9,30.03,NW,322,4.0,5.0,65,0.00,,,0.00,LWC V2.00 B2112,2013-06-14 00:17:00,
2013-06-13 17:22:00,62.6,51.1,30.02,SW,236,2.0,2.0,66,0.00,,,0.00,LWC V2.00 B2112,2013-06-14 00:22:00,
2013-06-13 17:27:00,62.6,51.5,30.02,ENE,58,1.0,2.0,67,0.00,,,0.00,LWC V2.00 B2112,2013-06-14 00:27:00,
2013-06-13 17:32:00,62.4,51.3,30.02,ESE,119,2.0,4.0,67,0.00,,,0.00,LWC V2.00 B2112,2013-06-14 00:32:00,
2013-06-13 17:37:00,62.3,50.8,30.02,NE,44,0.0,6.0,66,0.00,,,0.00,LWC V2.00 B2112,2013-06-14 00:37:00,
2013-06-13 17:42:00,62.0,50.5,30.02,South,176,3.0,5.0,66,0.00,,,0.00,LWC V2.00 B2112,2013-06-14 00:42:00,
2013-06-13 17:47:00,61.1,50.5,30.02,ESE,122,3.0,6.0,68,0.00,,,0.00,LWC V2.00 B2112,2013-06-14 00:47:00,
2013-06-13 17:52:00,60.7,50.5,30.02,West,271,5.0,5.0,69,0.00,,,0.00,LWC V2.00 B2112,2013-06-14 00:52:00,
2013-06-13 17:57:00,60.8,50.6,30.02,NW,304,1.0,2.0,69,0.00,,,0.00,LWC V2.00 B2112,2013-06-14 00:57:00,
2013-06-13 18:02:00,60.6,50.4,30.02,SE,136,1.0,6.0,69,0.00,,,0.00,LWC V2.00 B2112,2013-06-14 01:02:00,
2013-06-13 18:07:00,60.2,50.4,30.02,SE,136,2.0,5.0,70,0.00,,,0.00,LWC V2.00 B2112,2013-06-14 01:07:00,
2013-06-13 18:12:00,60.1,49.9,30.02,SE,137,1.0,5.0,69,0.00,,,0.00,LWC V2.00 B2112,2013-06-14 01:12:00,
2013-06-13 18:17:00,59.9,50.5,30.02,ENE,72,2.0,7.0,71,0.00,,,0.00,LWC V2.00 B2112,2013-06-14 01:17:00,
2013-06-13 18:22:00,59.8,50.0,30.01,South,174,3.0,13.0,70,0.00,,,0.00,LWC V2.00 B2112,2013-06-14 01:22:00,
2013-06-13 18:27:00,59.5,50.1,30.02,NW,320,6.0,7.0,71,0.00,,,0.00,LWC V2.00 B2112,2013-06-14 01:27:00,
2013-06-13 18:32:00,59.4,50.0,30.02,ESE,113,2.0,4.0,71,0.00,,,0.00,LWC V2.00 B2112,2013-06-14 01:32:00,
2013-06-13 18:37:00,59.2,50.2,30.01,NW,311,1.0,3.0,72,0.00,,,0.00,LWC V2.00 B2112,2013-06-14 01:37:00,
2013-06-13 18:42:00,59.3,49.9,30.02,SE,137,1.0,5.0,71,0.00,,,0.00,LWC V2.00 B2112,2013-06-14 01:42:00,
2013-06-13 18:47:00,59.0,49.6,30.02,NNW,336,1.0,8.0,71,0.00,,,0.00,LWC V2.00 B2112,2013-06-14 01:47:00,
2013-06-13 18:52:00,58.7,49.7,30.02,WNW,284,1.0,3.0,72,0.00,,,0.00,LWC V2.00 B2112,2013-06-14 01:52:00,
2013-06-13 18:57:00,58.6,49.6,30.02,WNW,285,3.0,3.0,72,0.00,,,0.00,LWC V2.00 B2112,2013-06-14 01:57:00,
2013-06-13 19:02:00,58.0,49.4,30.02,WNW,301,3.0,4.0,73,0.00,,,0.00,LWC V2.00 B2112,2013-06-14 02:02:00,
2013-06-13 19:07:00,57.4,49.2,30.02,East,95,2.0,11.0,74,0.00,,,0.00,LWC V2.00 B2112,2013-06-14 02:07:00,
2013-06-13 19:12:00,56.8,49.0,30.02,West,269,0.0,3.0,75,0.00,,,0.00,LWC V2.00 B2112,2013-06-14 02:12:00,
2013-06-13 19:17:00,56.5,49.0,30.02,East,86,1.0,2.0,76,0.00,,,0.00,LWC V2.00 B2112,2013-06-14 02:17:00,
2013-06-13 19:22:00,56.1,48.6,30.02,NW,306,0.0,2.0,76,0.00,,,0.00,LWC V2.00 B2112,2013-06-14 02:22:00,
2013-06-13 19:27:00,55.8,48.7,30.02,East,96,1.0,3.0,77,0.00,,,0.00,LWC V2.00 B2112,2013-06-14 02:27:00,
2013-06-13 19:32:00,55.5,48.8,30.01,SE,135,1.0,3.0,78,0.00,,,0.00,LWC V2.00 B2112,2013-06-14 02:32:00,
2013-06-13 19:37:00,55.2,48.5,30.01,SSE,150,2.0,5.0,78,0.00,,,0.00,LWC V2.00 B2112,2013-06-14 02:37:00,
2013-06-13 19:42:00,55.0,48.6,30.01,NNW,338,2.0,8.0,79,0.00,,,0.00,LWC V2.00 B2112,2013-06-14 02:42:00,
2013-06-13 19:47:00,54.7,48.7,30.01,NNW,340,1.0,8.0,80,0.00,,,0.00,LWC V2.00 B2112,2013-06-14 02:47:00,
2013-06-13 19:55:00,54.4,48.4,30.01,NNE,13,1.0,5.0,80,0.00,,,0.00,LWC V2.00 B2112,2013-06-14 02:55:00,
2013-06-13 20:00:00,54.3,48.6,30.01,East,96,1.0,4.0,81,0.00,,,0.00,LWC V2.00 B2112,2013-06-14 03:00:00,
2013-06-13 20:05:00,54.1,48.4,30.01,East,101,4.0,6.0,81,0.00,,,0.00,LWC V2.00 B2112,2013-06-14 03:05:00,
2013-06-13 20:10:00,53.9,48.2,30.01,South,169,1.0,6.0,81,0.00,,,0.00,LWC V2.00 B2112,2013-06-14 03:10:00,
2013-06-13 20:15:00,53.8,48.4,30.01,NE,43,5.0,5.0,82,0.00,,,0.00,LWC V2.00 B2112,2013-06-14 03:15:00,
2013-06-13 20:20:00,53.6,48.2,30.00,NNW,338,2.0,4.0,82,0.00,,,0.00,LWC V2.00 B2112,2013-06-14 03:20:00,
2013-06-13 20:25:00,53.5,48.1,30.00,ESE,121,1.0,2.0,82,0.00,,,0.00,LWC V2.00 B2112,2013-06-14 03:25:00,
2013-06-13 20:30:00,53.4,48.0,30.00,ESE,113,0.0,4.0,82,0.00,,,0.00,LWC V2.00 B2112,2013-06-14 03:30:00,
2013-06-13 20:35:00,53.3,48.3,30.00,SE,136,0.0,1.0,83,0.00,,,0.00,LWC V2.00 B2112,2013-06-14 03:35:00,
2013-06-13 20:40:00,53.2,48.2,30.00,WSW,253,0.0,1.0,83,0.00,,,0.00,LWC V2.00 B2112,2013-06-14 03:40:00,
2013-06-13 20:45:00,53.0,48.0,30.00,East,89,3.0,3.0,83,0.00,,,0.00,LWC V2.00 B2112,2013-06-14 03:45:00,
2013-06-13 20:50:00,52.9,47.9,30.00,ENE,68,0.0,0.0,83,0.00,,,0.00,LWC V2.00 B2112,2013-06-14 03:50:00,
2013-06-13 20:55:00,52.8,47.8,30.00,NE,34,0.0,4.0,83,0.00,,,0.00,LWC V2.00 B2112,2013-06-14 03:55:00,
2013-06-13 21:00:00,52.7,47.7,30.01,ESE,119,2.0,3.0,83,0.00,,,0.00,LWC V2.00 B2112,2013-06-14 04:00:00,
2013-06-13 21:01:00,52.7,48.0,30.00,NNE,29,0.0,3.0,84,0.00,,,0.00,LWC V2.00 B2112,2013-06-14 04:01:00,
2013-06-13 21:06:00,52.7,47.7,30.00,West,267,0.0,0.0,83,0.00,,,0.00,LWC V2.00 B2112,2013-06-14 04:06:00,
2013-06-13 21:11:00,52.5,47.8,30.00,West,267,0.0,0.0,84,0.00,,,0.00,LWC V2.00 B2112,2013-06-14 04:11:00,
2013-06-13 21:16:00,52.4,47.7,30.00,SSW,193,0.0,2.0,84,0.00,,,0.00,LWC V2.00 B2112,2013-06-14 04:16:00,
2013-06-13 21:21:00,52.3,47.6,30.00,NW,313,0.0,0.0,84,0.00,,,0.00,LWC V2.00 B2112,2013-06-14 04:21:00,
2013-06-13 21:26:00,52.1,47.4,30.00,NW,315,0.0,0.0,84,0.00,,,0.00,LWC V2.00 B2112,2013-06-14 04:26:00,
2013-06-13 21:31:00,51.9,47.2,30.00,ESE,116,0.0,0.0,84,0.00,,,0.00,LWC V2.00 B2112,2013-06-14 04:31:00,
2013-06-13 21:36:00,51.7,47.3,30.01,SW,226,0.0,0.0,85,0.00,,,0.00,LWC V2.00 B2112,2013-06-14 04:36:00,
2013-06-13 21:41:00,51.6,47.2,30.00,SSW,212,0.0,2.0,85,0.00,,,0.00,LWC V2.00 B2112,2013-06-14 04:41:00,
2013-06-13 21:46:00,51.5,47.1,30.00,ESE,113,2.0,2.0,85,0.00,,,0.00,LWC V2.00 B2112,2013-06-14 04:46:00,
2013-06-13 21:50:00,51.5,47.1,30.00,WSW,258,0.0,3.0,85,0.00,,,0.00,LWC V2.00 B2112,2013-06-14 04:50:00,
2013-06-13 21:51:00,51.6,47.2,30.00,NW,316,0.0,0.0,85,0.00,,,0.00,LWC V2.00 B2112,2013-06-14 04:51:00,
2013-06-13 21:56:00,51.6,47.2,30.01,ENE,76,0.0,0.0,85,0.00,,,0.00,LWC V2.00 B2112,2013-06-14 04:56:00,
2013-06-13 22:00:00,51.6,47.2,30.00,East,90,0.0,3.0,85,0.00,,,0.00,LWC V2.00 B2112,2013-06-14 05:00:00,
2013-06-13 22:10:00,51.6,47.2,30.00,East,90,0.0,3.0,85,0.00,,,0.00,LWC V2.00 B2112,2013-06-14 05:10:00,
2013-06-13 22:20:00,51.6,47.2,30.00,East,90,0.0,3.0,85,0.00,,,0.00,LWC V2.00 B2112,2013-06-14 05:20:00,
2013-06-13 22:30:00,52.1,47.7,30.00,East,90,0.0,3.0,85,0.00,,,0.00,LWC V2.00 B2112,2013-06-14 05:30:00,
2013-06-13 22:40:00,52.1,47.7,30.00,East,90,0.0,3.0,85,0.00,,,0.00,LWC V2.00 B2112,2013-06-14 05:40:00,
2013-06-13 22:50:00,52.1,47.7,30.00,East,90,0.0,3.0,85,0.00,,,0.00,LWC V2.00 B2112,2013-06-14 05:50:00,
2013-06-13 23:00:00,50.8,46.5,30.00,NW,315,0.0,1.0,85,0.00,,,0.00,LWC V2.00 B2112,2013-06-14 06:00:00,
2013-06-13 23:10:00,50.8,46.5,30.00,NW,315,0.0,1.0,85,0.00,,,0.00,LWC V2.00 B2112,2013-06-14 06:10:00,
2013-06-13 23:20:00,50.8,46.5,30.00,NW,315,0.0,1.0,85,0.00,,,0.00,LWC V2.00 B2112,2013-06-14 06:20:00,
2013-06-13 23:30:00,49.4,45.4,30.00,North,0,0.0,0.0,86,0.00,,,0.00,LWC V2.00 B2112,2013-06-14 06:30:00,
2013-06-13 23:40:00,49.4,45.4,30.00,North,0,0.0,0.0,86,0.00,,,0.00,LWC V2.00 B2112,2013-06-14 06:40:00,
2013-06-13 23:50:00,49.4,45.4,30.00,North,0,0.0,0.0,86,0.00,,,0.00,LWC V2.00 B2112,2013-06-14 06:50:00,